Wind_Speed
14 15 16 17 19 20 22 23 23 21 19 18 18 17 16 13 11 9 8 8 6 4 3 4 4 5 6 7 7 7 7 7 7 7 7 7 6 6 6 5 5 5 5 4 4 3 3 2 2
12 13 15 17 19 20 22 23 23 22 20 20 19 18 16 14 11 10 9 8 6 4 3 3 4 4 5 5 6 6 6 6 6 6 6 6 6 6 6 6 6 5 5 5 4 3 3 3 3
11 12 14 16 18 20 22 23 23 22 21 21 20 18 16 14 12 10 9 8 6 4 4 4 4 4 4 5 5 5 5 5 6 6 6 6 6 6 6 6 6 6 6 5 4 4 3 3 2
9 10 12 14 17 19 21 21 22 22 22 21 20 19 16 14 12 11 10 8 6 5 5 4 4 4 4 5 5 4 4 4 5 5 6 6 6 6 6 7 6 6 6 5 4 4 3 3 2
9 9 11 13 15 18 19 21 21 21 21 20 19 18 16 14 12 11 10 8 7 6 6 5 4 4 4 4 3 3 4 4 4 5 5 5 5 6 6 7 7 6 6 5 4 3 3 2 2
9 9 10 12 14 16 18 20 20 20 20 19 19 18 16 14 12 11 10 8 8 7 6 5 4 3 2 2 2 2 2 2 3 3 4 4 5 5 6 6 6 6 5 5 4 4 3 3 2
7 8 9 10 13 15 17 18 18 19 19 19 18 18 17 15 13 11 10 9 8 8 7 6 5 3 1 1 0 1 1 1 1 2 2 3 4 5 5 6 6 6 5 5 4 4 3 3 2
6 7 8 10 12 14 15 16 17 18 19 18 18 18 17 16 14 12 11 10 9 9 8 7 6 5 2 1 1 0 1 1 1 1 1 2 3 4 4 5 5 6 5 4 3 3 3 3 2
4 6 7 9 11 12 13 14 15 16 17 18 18 17 17 16 14 12 11 10 10 10 9 9 8 6 5 3 2 1 1 1 1 1 1 1 1 2 3 4 4 5 4 4 3 3 3 3 2
4 5 7 8 9 11 12 12 13 14 15 17 18 17 17 16 15 13 12 11 10 10 10 9 8 7 6 4 2 2 3 3 2 2 1 1 0 1 2 3 3 4 4 3 3 3 3 3 3
3 5 7 7 8 9 10 11 12 13 14 16 16 16 16 16 16 15 13 12 11 10 10 10 9 9 8 5 2 2 3 3 3 3 2 1 1 0 0 1 2 3 3 3 3 3 3 3 2
3 5 7 7 7 8 9 10 10 12 13 15 16 15 16 16 16 15 14 13 12 11 10 10 9 9 8 5 2 2 3 4 4 4 3 3 2 1 1 1 1 2 2 2 2 2 2 2 2
2 4 5 5 5 7 8 10 10 11 12 13 14 15 15 16 16 16 15 14 13 11 11 10 9 8 7 6 2 1 2 4 4 4 4 4 4 3 2 2 1 1 1 1 1 1 1 1 1
2 3 3 3 4 5 7 9 10 10 10 12 13 13 14 15 16 15 15 14 13 12 11 10 9 8 7 6 4 2 3 3 5 5 5 5 4 4 3 3 2 2 2 1 1 1 1 1 1
3 3 3 3 2 3 5 7 8 9 10 11 12 12 12 13 15 16 16 14 13 12 11 10 10 9 8 7 5 3 3 4 5 6 6 6 5 5 4 4 4 3 2 1 1 0 1 1 1
5 5 5 4 3 3 4 5 7 8 9 10 11 12 12 13 14 16 16 14 13 12 12 10 10 10 8 7 5 3 3 4 6 6 7 6 6 6 6 5 4 4 3 2 1 1 1 1 1
7 7 6 6 6 5 5 5 6 7 8 9 10 11 12 13 14 15 16 15 13 12 12 11 10 10 8 6 6 3 2 4 4 6 7 7 7 7 6 5 5 4 3 2 2 1 1 1 1
10 10 9 9 8 7 6 5 5 6 7 8 9 10 11 13 15 15 15 15 14 12 12 10 10 9 8 6 6 3 2 2 3 6 7 8 8 8 7 6 6 5 5 4 3 2 1 1 0
12 12 11 11 11 9 8 7 6 5 7 8 9 9 11 13 14 15 15 15 13 12 10 10 9 9 8 7 6 4 3 2 3 6 8 8 9 9 8 8 7 6 6 5 4 3 2 2 1
14 13 14 14 13 12 11 9 8 7 7 8 9 10 11 13 14 14 14 15 14 11 10 9 9 8 7 6 5 3 3 3 4 6 8 9 9 9 10 9 9 8 8 7 5 5 4 3 3
15 15 16 16 15 15 13 10 9 9 9 9 10 11 12 12 14 14 14 14 12 10 9 9 9 8 7 6 4 3 3 4 5 6 7 9 10 10 10 10 11 10 9 9 8 7 6 5 5
17 18 18 18 17 17 15 12 10 10 11 11 11 12 12 12 13 14 13 13 11 10 9 10 9 8 6 6 5 4 4 4 5 6 7 9 10 10 11 11 12 12 11 10 9 8 8 7 7
19 20 20 19 18 18 17 15 13 12 12 12 12 11 10 11 12 14 14 13 12 11 10 10 9 7 6 5 5 5 4 4 4 5 7 9 10 11 11 11 12 13 12 12 11 10 9 9 8
21 21 21 20 19 19 18 17 14 13 12 13 12 11 10 11 13 15 14 12 12 11 10 10 8 7 6 6 6 5 5 5 6 6 7 8 10 12 12 13 13 13 13 12 12 12 11 10 10
22 22 22 21 21 20 18 17 14 13 12 12 12 11 10 11 13 14 13 11 11 11 10 9 8 7 7 7 7 6 6 6 7 6 7 8 9 11 12 13 14 14 14 13 13 13 13 13 12
24 23 23 23 22 20 19 18 14 13 11 11 11 11 10 11 13 12 12 12 11 10 9 9 8 7 7 7 7 6 6 6 6 6 7 8 10 11 12 13 14 14 14 14 14 14 14 14 15
25 25 24 25 23 22 20 18 15 13 11 10 10 9 9 10 10 11 12 12 11 10 10 9 9 8 7 7 7 6 6 6 6 6 7 9 10 11 12 13 14 15 15 15 15 15 16 16 16
27 26 26 25 25 23 21 18 15 14 13 11 10 10 9 10 11 11 12 12 11 10 9 10 9 9 8 8 7 6 6 6 6 6 7 8 9 10 12 13 14 14 15 16 16 16 17 17 18
29 28 27 26 25 23 20 17 15 15 14 13 12 11 11 11 11 11 12 12 11 11 10 10 10 9 9 8 8 8 7 7 6 6 6 7 9 10 11 11 12 13 15 16 17 18 18 18 19
31 29 28 27 25 23 20 16 15 16 15 14 13 12 12 12 11 11 13 13 12 11 11 11 10 9 9 9 9 8 8 7 7 7 7 7 8 8 9 11 12 14 15 16 17 19 19 20 20
Wind_Direction
83 78 75 71 66 64 62 58 54 49 46 46 44 43 43 44 45 51 55 57 53 55 73 84 84 87 90 87 83 79 74 70 64 61 59 57 54 47 43 43 39 32 27 27 29 33 37 50 58
83 80 78 73 69 67 62 57 52 49 47 45 40 37 37 39 43 50 55 55 49 51 70 80 80 82 87 89 85 80 77 70 65 60 58 57 55 46 40 38 33 31 28 25 22 25 29 44 52
82 79 79 71 68 65 62 58 53 50 46 42 38 35 33 35 41 47 52 50 46 51 66 76 75 79 81 82 81 80 77 70 66 63 58 56 53 46 38 31 31 32 27 23 24 30 32 39 42
83 80 78 69 62 61 61 58 54 48 43 40 37 33 31 33 36 43 47 46 46 53 66 74 76 79 83 82 79 74 72 67 66 64 58 54 49 43 35 33 35 36 31 28 28 31 36 35 32
85 84 74 66 60 59 59 55 52 47 41 37 34 28 28 29 31 38 41 41 39 43 54 67 75 76 76 77 72 68 66 69 67 64 57 51 45 41 37 36 35 35 33 32 32 33 42 40 31
94 86 69 61 57 57 56 52 49 44 40 35 31 28 27 26 27 33 37 36 33 33 39 47 53 68 82 87 82 85 79 74 68 66 53 44 41 42 40 37 36 36 36 36 34 36 41 42 39
88 78 66 59 52 52 54 50 45 42 38 33 30 28 28 26 26 31 34 31 28 28 32 35 34 34 34 30 62 109 128 114 98 85 52 40 37 42 42 38 37 36 35 33 33 35 40 44 50
80 63 61 56 49 47 48 46 42 38 35 30 27 27 26 23 25 29 30 29 28 28 28 30 27 24 3 316 303 194 186 167 155 141 64 36 30 39 43 39 39 43 41 34 33 36 38 38 36
70 62 56 49 42 42 43 40 40 37 34 27 25 25 24 21 21 23 25 23 24 24 28 29 25 26 22 350 311 237 207 202 191 159 148 20 16 25 40 40 41 43 42 35 32 34 37 34 31
46 40 37 35 38 40 42 38 36 33 31 26 23 25 23 20 18 18 19 19 21 23 25 24 19 15 9 355 318 237 218 219 212 174 161 161 165 24 42 40 43 48 47 42 36 36 38 35 38
26 12 9 15 32 37 43 42 36 32 29 25 22 22 22 19 16 16 15 17 18 18 17 15 13 11 5 356 321 231 223 222 210 193 188 194 210 233 18 37 52 54 58 55 40 30 29 28 29
14 1 360 12 30 40 41 42 37 33 28 26 22 20 19 16 13 14 12 13 13 12 11 10 9 11 7 3 335 250 238 233 221 209 207 210 217 217 210 149 100 74 76 66 41 26 17 21 26
356 353 354 8 27 36 40 38 36 34 32 27 20 18 16 12 11 11 10 10 11 9 8 7 6 9 9 5 335 256 235 231 226 218 217 217 222 220 217 190 173 134 116 89 46 33 36 45 42
304 319 332 344 3 26 35 33 33 31 33 27 23 18 12 6 8 8 7 6 5 5 3 359 0 3 3 359 343 269 242 234 227 224 212 211 215 216 214 207 202 188 172 142 35 33 46 58 55
254 273 282 293 324 355 14 23 28 28 31 30 26 18 10 6 5 7 5 1 359 358 358 356 358 355 353 352 342 313 260 237 227 222 214 210 212 211 210 212 209 204 198 195 239 217 126 125 81
239 249 261 272 284 310 338 11 17 21 26 27 22 16 10 6 2 3 1 357 355 353 351 351 353 351 353 351 342 315 261 237 221 219 215 212 212 208 212 212 207 207 208 219 213 195 165 120 96
238 246 259 270 279 297 320 350 2 10 15 16 11 7 6 0 358 356 356 356 352 347 343 345 346 352 351 346 344 337 263 240 220 212 215 215 213 207 207 206 207 209 215 224 205 181 167 140 97
239 247 257 268 279 291 307 319 339 354 356 359 359 358 -0 358 355 352 350 351 350 344 340 345 345 346 344 340 335 328 279 251 232 221 223 223 216 212 211 214 214 214 218 224 225 217 199 181 139
242 248 257 267 274 280 290 302 313 332 340 345 347 351 352 353 351 348 348 348 346 344 343 344 343 345 340 335 334 322 292 266 235 232 231 227 219 217 217 219 220 219 220 221 225 233 229 221 230
244 247 254 264 270 275 284 295 304 320 330 337 337 339 341 346 349 345 346 344 345 347 347 345 342 344 343 334 334 320 295 276 263 253 238 230 226 222 219 222 223 224 224 225 229 234 236 239 249
245 246 251 258 268 276 283 290 298 311 319 323 327 331 333 339 346 348 347 344 342 343 342 342 338 335 333 329 331 321 298 286 265 251 240 232 228 226 221 223 224 227 229 229 232 233 238 243 249
243 246 250 257 264 271 283 288 294 302 310 312 317 321 325 331 338 340 342 342 340 337 336 337 337 333 328 319 310 309 298 286 266 252 245 234 232 232 227 229 229 229 232 234 237 236 240 246 252
243 248 251 255 261 267 276 282 289 292 300 304 309 314 321 329 333 339 340 338 335 332 332 334 334 332 328 329 317 310 304 297 281 254 241 238 236 237 234 233 233 233 233 234 237 239 242 248 253
244 249 253 256 261 265 272 278 284 286 289 294 302 310 319 328 333 336 332 332 332 331 332 332 332 330 329 329 320 313 307 298 282 258 244 242 243 239 235 235 236 233 233 235 239 242 243 248 253
244 248 252 256 261 265 271 276 281 284 288 292 297 305 313 324 332 334 332 330 335 334 336 335 335 331 327 326 322 311 310 297 279 261 251 245 247 243 240 238 238 235 235 238 242 245 246 249 253
244 247 251 256 261 265 268 272 277 281 284 290 298 304 310 319 328 334 337 336 334 334 334 336 336 334 330 327 329 323 313 300 287 271 260 253 251 247 244 243 240 240 240 242 246 246 249 253 256
242 245 250 254 259 262 265 268 270 272 277 284 297 304 312 323 332 335 338 337 334 331 330 330 330 330 331 328 325 320 317 304 291 277 264 256 254 252 250 247 247 244 242 247 250 251 253 256 258
240 244 248 253 258 261 264 266 265 266 269 277 286 299 305 316 327 333 334 336 331 328 324 324 323 324 323 323 322 318 314 306 290 281 271 257 256 257 253 252 249 248 249 250 252 252 255 258 261
241 244 248 251 256 260 263 262 261 262 265 271 280 291 299 308 318 325 328 332 326 322 321 320 321 322 321 319 318 315 310 307 300 291 284 273 266 263 258 255 255 255 256 253 254 257 259 262 264
238 241 245 249 253 258 262 259 254 257 262 270 280 284 293 306 312 313 318 322 321 319 317 315 316 321 323 322 321 316 317 312 304 295 289 281 275 271 267 262 261 262 263 262 262 263 263 266 268
Height
5896 5897 5897 5898 5897 5896 5893 5892 5891 5891 5891 5890 5889 5888 5888 5888 5889 5890 5888 5886 5886 5887 5886 5887 5887 5887 5887 5888 5888 5889 5890 5890 5891 5892 5893 5893 5894 5894 5895 5895 5896 5896 5896 5896 5896 5896 5896 5896 5896
5899 5900 5901 5900 5899 5897 5896 5894 5894 5894 5893 5891 5890 5890 5889 5889 5888 5888 5887 5887 5887 5887 5887 5887 5887 5887 5888 5888 5889 5889 5890 5891 5892 5892 5893 5894 5894 5895 5895 5896 5896 5896 5896 5896 5896 5896 5896 5896 5896
5901 5902 5903 5902 5901 5900 5899 5897 5897 5896 5895 5893 5893 5892 5892 5891 5890 5889 5888 5888 5888 5888 5888 5887 5888 5888 5888 5888 5889 5890 5890 5891 5892 5893 5893 5894 5895 5895 5896 5896 5896 5896 5896 5896 5896 5896 5896 5897 5897
5903 5905 5905 5905 5903 5902 5901 5900 5899 5898 5897 5896 5895 5895 5893 5893 5891 5890 5889 5889 5889 5889 5888 5888 5888 5888 5888 5889 5889 5890 5891 5891 5892 5893 5894 5894 5895 5895 5896 5896 5896 5896 5896 5896 5896 5896 5897 5897 5897
5905 5906 5906 5905 5904 5904 5903 5902 5901 5900 5899 5898 5897 5896 5895 5894 5893 5892 5891 5891 5890 5890 5889 5888 5888 5888 5889 5889 5889 5890 5891 5892 5892 5893 5894 5895 5895 5895 5896 5896 5896 5896 5897 5897 5897 5897 5897 5897 5897
5907 5907 5907 5907 5906 5906 5905 5903 5903 5902 5901 5901 5900 5898 5897 5896 5895 5893 5892 5892 5891 5890 5889 5889 5888 5889 5889 5889 5889 5890 5891 5892 5892 5893 5894 5895 5895 5896 5896 5896 5897 5897 5897 5897 5897 5897 5897 5897 5898
5909 5909 5908 5908 5908 5907 5906 5905 5905 5904 5903 5903 5902 5900 5898 5897 5896 5895 5894 5893 5892 5891 5890 5889 5889 5889 5889 5889 5889 5890 5891 5891 5892 5893 5894 5895 5895 5896 5896 5897 5897 5897 5897 5897 5897 5897 5897 5898 5898
5909 5910 5909 5909 5909 5908 5908 5907 5906 5906 5905 5905 5903 5902 5900 5899 5897 5896 5895 5894 5893 5892 5891 5890 5889 5889 5889 5889 5889 5889 5890 5891 5892 5893 5894 5895 5895 5896 5896 5897 5897 5897 5897 5898 5898 5898 5898 5898 5898
5911 5912 5910 5910 5910 5910 5909 5909 5908 5908 5907 5906 5905 5904 5903 5901 5899 5898 5896 5895 5894 5893 5891 5890 5889 5889 5888 5888 5889 5889 5890 5891 5892 5893 5893 5894 5895 5896 5896 5897 5897 5898 5898 5898 5898 5898 5898 5898 5899
5912 5912 5912 5911 5911 5910 5910 5910 5910 5909 5908 5907 5906 5905 5904 5902 5901 5899 5897 5896 5894 5893 5892 5891 5890 5889 5888 5888 5888 5889 5890 5890 5891 5892 5893 5894 5895 5896 5897 5897 5898 5898 5898 5898 5898 5899 5899 5899 5899
5912 5913 5913 5912 5912 5911 5911 5911 5911 5910 5909 5908 5907 5906 5905 5904 5902 5901 5899 5897 5896 5894 5892 5891 5890 5889 5888 5888 5888 5888 5889 5890 5891 5892 5893 5894 5895 5896 5896 5897 5898 5898 5899 5899 5899 5899 5899 5899 5900
5913 5913 5913 5913 5913 5913 5912 5912 5912 5911 5911 5910 5909 5907 5906 5905 5903 5902 5900 5898 5896 5895 5893 5892 5891 5889 5888 5888 5887 5888 5889 5890 5891 5892 5893 5894 5895 5895 5896 5897 5897 5898 5899 5899 5899 5900 5900 5900 5900
5913 5913 5914 5914 5914 5913 5913 5913 5913 5912 5912 5911 5910 5908 5907 5906 5904 5902 5900 5899 5897 5895 5894 5892 5891 5889 5888 5887 5887 5887 5888 5889 5890 5891 5892 5893 5894 5895 5896 5897 5897 5898 5899 5899 5899 5900 5900 5900 5900
5913 5913 5914 5914 5914 5914 5914 5914 5913 5913 5912 5911 5910 5909 5908 5906 5905 5903 5901 5899 5897 5895 5894 5892 5891 5889 5888 5887 5887 5887 5888 5889 5890 5891 5892 5893 5894 5895 5896 5896 5897 5898 5899 5899 5899 5900 5900 5900 5900
5912 5913 5914 5914 5914 5914 5914 5914 5914 5914 5913 5912 5911 5910 5908 5907 5905 5903 5901 5899 5897 5895 5894 5892 5890 5889 5888 5887 5886 5886 5887 5888 5889 5890 5891 5892 5893 5894 5895 5896 5897 5898 5899 5899 5899 5900 5900 5901 5901
5912 5913 5914 5914 5914 5914 5916 5915 5914 5914 5913 5912 5912 5910 5909 5907 5905 5903 5901 5899 5897 5895 5894 5892 5890 5888 5887 5887 5886 5885 5886 5887 5888 5889 5890 5891 5892 5894 5895 5896 5897 5898 5899 5899 5899 5900 5900 5901 5901
5911 5912 5913 5914 5914 5914 5915 5914 5914 5913 5913 5912 5911 5910 5909 5907 5905 5903 5901 5899 5897 5895 5893 5891 5889 5888 5886 5886 5886 5885 5885 5886 5887 5888 5889 5890 5892 5893 5894 5895 5896 5897 5898 5899 5899 5900 5900 5901 5901
5910 5911 5912 5912 5913 5913 5913 5913 5913 5913 5912 5912 5911 5910 5908 5907 5905 5903 5900 5898 5896 5894 5892 5891 5889 5887 5886 5885 5885 5884 5885 5885 5886 5887 5888 5890 5891 5892 5893 5895 5896 5897 5898 5899 5899 5900 5900 5901 5901
5909 5910 5910 5911 5912 5912 5912 5912 5912 5912 5911 5911 5910 5909 5907 5906 5904 5902 5900 5897 5895 5892 5891 5890 5889 5887 5885 5885 5884 5884 5884 5884 5885 5886 5887 5888 5890 5891 5892 5894 5895 5897 5898 5898 5899 5900 5900 5901 5901
5907 5908 5909 5909 5910 5911 5911 5911 5911 5911 5911 5910 5909 5908 5906 5905 5903 5901 5899 5897 5894 5892 5891 5889 5888 5886 5885 5884 5884 5883 5883 5884 5884 5885 5886 5887 5888 5890 5891 5893 5894 5896 5897 5898 5898 5899 5900 5900 5901
5905 5907 5907 5907 5908 5908 5910 5910 5910 5910 5910 5909 5908 5907 5905 5904 5902 5900 5898 5896 5893 5891 5890 5889 5887 5886 5885 5884 5883 5882 5882 5883 5883 5884 5884 5885 5887 5888 5890 5891 5893 5894 5896 5897 5898 5898 5899 5900 5900
5903 5903 5904 5905 5906 5906 5908 5908 5909 5908 5908 5908 5907 5906 5904 5902 5901 5899 5897 5895 5892 5891 5889 5888 5886 5885 5884 5882 5882 5881 5881 5882 5882 5883 5883 5884 5886 5887 5888 5890 5891 5893 5894 5895 5896 5897 5898 5898 5899
5899 5900 5902 5903 5904 5905 5905 5906 5908 5906 5906 5906 5905 5904 5902 5901 5899 5898 5895 5893 5891 5890 5888 5887 5885 5884 5883 5882 5881 5881 5880 5881 5881 5881 5882 5883 5884 5885 5887 5888 5889 5890 5892 5893 5894 5895 5896 5897 5897
5896 5897 5899 5900 5901 5903 5903 5904 5905 5904 5904 5903 5903 5902 5900 5899 5897 5895 5894 5892 5890 5888 5887 5885 5884 5883 5882 5881 5880 5880 5879 5879 5880 5880 5881 5881 5882 5883 5884 5886 5887 5888 5890 5891 5892 5893 5894 5895 5895
5892 5894 5896 5897 5898 5900 5900 5901 5903 5902 5902 5901 5901 5900 5898 5897 5895 5893 5892 5890 5889 5887 5886 5884 5883 5882 5881 5881 5879 5878 5878 5878 5878 5878 5879 5879 5880 5881 5882 5883 5884 5886 5887 5888 5889 5890 5891 5892 5893
5888 5890 5893 5894 5895 5896 5897 5898 5900 5900 5899 5899 5898 5898 5897 5895 5893 5892 5891 5889 5888 5887 5885 5884 5883 5882 5881 5879 5878 5877 5877 5876 5876 5876 5876 5877 5877 5878 5879 5881 5882 5883 5884 5886 5887 5888 5888 5889 5890
5883 5886 5888 5890 5891 5892 5894 5896 5897 5897 5897 5897 5897 5896 5895 5894 5892 5891 5889 5888 5887 5886 5885 5883 5882 5881 5880 5879 5877 5876 5876 5875 5875 5875 5874 5874 5875 5876 5877 5878 5879 5880 5881 5883 5884 5884 5885 5886 5886
5879 5882 5884 5885 5887 5888 5891 5892 5894 5894 5895 5895 5895 5894 5894 5892 5891 5890 5888 5887 5886 5885 5884 5883 5881 5880 5879 5878 5876 5875 5875 5874 5874 5873 5873 5873 5873 5874 5874 5875 5876 5877 5878 5879 5880 5881 5881 5882 5883
5875 5877 5879 5881 5883 5885 5887 5891 5891 5892 5892 5893 5893 5892 5891 5890 5889 5888 5887 5886 5884 5883 5882 5881 5880 5879 5877 5876 5875 5875 5874 5873 5872 5872 5872 5871 5871 5872 5872 5873 5873 5873 5874 5875 5876 5877 5878 5878 5878
5868 5872 5875 5877 5879 5881 5883 5889 5887 5888 5889 5889 5890 5889 5889 5888 5887 5886 5885 5884 5882 5881 5880 5879 5878 5877 5876 5875 5874 5873 5873 5872 5871 5870 5870 5870 5870 5870 5870 5870 5870 5871 5871 5871 5872 5872 5873 5873 5873